Weather History for Adrian, MI

Change the Weather History Date:

Wednesday, March 6, 2013

  Actual Average Record
Temperature  
Mean Temperature 32 °F -  
Max Temperature 37 °F 42 °F 70 °F (1973)
Min Temperature 26 °F 22 °F 3 °F (1960)
Degree Days  
Heating Degree Days 34    
Moisture  
Dew Point 25 °F    
Average Humidity 75    
Maximum Humidity 85    
Minimum Humidity 65    
Precipitation  
Precipitation 0.00 in - - ()
Sea Level Pressure  
Sea Level Pressure 30.08 in    
Wind  
Wind Speed 12 mph (North)    
Max Wind Speed 17 mph    
Max Gust Speed 25 mph    
Visibility 10 miles    
Events      
Averages and records for this station are not official NWS values.
T = Trace of Precipitation, MM = Missing Value Source: NWS Daily Summary

Daily Weather History Graph

Daily Weather History Graph

Search for Another Location

Airport:

Trip Planner

Search our weather history database for the weather conditions in past years. The results will help you decide how hot, cold, wet, or windy it might be!

Date:

Astronomy

Mar. 06, 2013 Rise Set
Actual Time 7:02 AM EST 6:32 PM EST
Civil Twilight 6:34 AM EST 7:00 PM EST
Nautical Twilight 6:02 AM EST 7:32 PM EST
Astronomical Twilight 5:30 AM EST 8:05 PM EST
Moon 3:14 AM EST (3/6) 1:09 PM EST (3/6)
Length of Visible Light 12h 25m
Length of Day
11h 30m
Waning Crescent, 30% of the Moon is Illuminated
Mar 6
Waning Crescent
Mar 11
New
Mar 19
First Quarter
Mar 27
Full
Apr 3
Last Quarter

Hourly Weather History & Observations

Time (EST) Temp. Windchill Dew Point Humidity Pressure Visibility Wind Dir Wind Speed Gust Speed Precip Events Conditions
12:19 AM 28.4 °F 16.2 °F 21.2 °F 74% 29.80 in 10.0 mi NE 17.3 mph 25.3 mph N/A   Mostly Cloudy
12:53 AM 28.0 °F 16.1 °F 21.9 °F 78% 29.84 in 10.0 mi NE 16.1 mph - N/A   Partly Cloudy
1:53 AM 27.0 °F 14.3 °F 21.0 °F 78% 29.86 in 10.0 mi NNE 17.3 mph - N/A   Partly Cloudy
2:53 AM 27.0 °F 15.2 °F 21.0 °F 78% 29.88 in 10.0 mi NNE 15.0 mph - N/A   Clear
3:53 AM 26.1 °F 13.1 °F 21.9 °F 84% 29.88 in 10.0 mi NNE 17.3 mph 23.0 mph N/A   Scattered Clouds
4:04 AM 26.6 °F 13.8 °F 21.2 °F 80% 29.86 in 10.0 mi NNE 17.3 mph - N/A   Mostly Cloudy
4:14 AM 26.6 °F 14.7 °F 21.2 °F 80% 29.86 in 10.0 mi NNE 15.0 mph - N/A   Scattered Clouds
4:53 AM 27.0 °F 16.1 °F 21.9 °F 81% 29.92 in 10.0 mi NNE 12.7 mph - N/A   Partly Cloudy
5:53 AM 27.0 °F 15.6 °F 21.9 °F 81% 29.96 in 10.0 mi NNE 13.8 mph - N/A   Clear
6:53 AM 27.0 °F 15.2 °F 21.9 °F 81% 30.00 in 10.0 mi North 15.0 mph - N/A   Partly Cloudy
7:53 AM 27.0 °F 16.1 °F 23.0 °F 85% 30.04 in 10.0 mi NNE 12.7 mph - N/A   Clear
8:53 AM 30.0 °F 20.0 °F 24.1 °F 79% 30.07 in 10.0 mi NNE 12.7 mph - N/A   Clear
9:53 AM 33.1 °F 23.9 °F 26.1 °F 75% 30.09 in 10.0 mi NNE 12.7 mph - N/A   Scattered Clouds
10:08 AM 33.8 °F 24.3 °F 26.6 °F 75% 30.07 in 10.0 mi NNE 13.8 mph - N/A   Mostly Cloudy
10:53 AM 35.1 °F 27.4 °F 26.1 °F 70% 30.11 in 10.0 mi NE 10.4 mph - N/A   Mostly Cloudy
11:53 AM 36.0 °F 31.1 °F 27.0 °F 70% 30.12 in 10.0 mi NE 5.8 mph - N/A   Overcast
12:53 PM 36.0 °F 30.3 °F 26.1 °F 67% 30.15 in 10.0 mi North 6.9 mph - N/A   Overcast
1:53 PM 36.0 °F 32.1 °F 27.0 °F 70% 30.15 in 10.0 mi North 4.6 mph - N/A   Overcast
2:43 PM 37.4 °F 31.4 °F 26.6 °F 65% 30.12 in 10.0 mi NNW 8.1 mph - N/A   Overcast
2:53 PM 37.0 °F 31.0 °F 27.0 °F 67% 30.15 in 10.0 mi North 8.1 mph - N/A   Overcast
3:37 PM 37.4 °F 32.1 °F 26.6 °F 65% 30.13 in 10.0 mi North 6.9 mph - N/A   Overcast
3:53 PM 37.0 °F 31.0 °F 27.0 °F 67% 30.16 in 10.0 mi North 8.1 mph - N/A   Overcast
4:49 PM 35.6 °F 29.9 °F 26.6 °F 70% 30.14 in 10.0 mi North 6.9 mph - N/A   Overcast
4:53 PM 36.0 °F 30.3 °F 27.0 °F 70% 30.18 in 10.0 mi North 6.9 mph - N/A   Overcast
5:21 PM 35.6 °F 29.2 °F 26.6 °F 70% 30.16 in 10.0 mi NNW 8.1 mph - N/A   Overcast
5:53 PM 35.1 °F 28.6 °F 26.1 °F 70% 30.20 in 10.0 mi NNW 8.1 mph - N/A   Overcast
6:19 PM 35.6 °F 29.9 °F 26.6 °F 70% 30.17 in 10.0 mi NW 6.9 mph - N/A   Overcast
6:53 PM 34.0 °F 28.8 °F 27.0 °F 75% 30.22 in 10.0 mi NNW 5.8 mph - N/A   Overcast
7:53 PM 33.1 °F 27.7 °F 27.0 °F 78% 30.23 in 10.0 mi NW 5.8 mph - N/A   Overcast
8:53 PM 33.1 °F 30.0 °F 27.0 °F 78% 30.23 in 10.0 mi NW 3.5 mph - N/A   Overcast
9:53 PM 33.1 °F - 27.0 °F 78% 30.24 in 10.0 mi Calm Calm - N/A   Overcast
10:53 PM 32.0 °F 28.7 °F 27.0 °F 82% 30.25 in 9.0 mi NW 3.5 mph - N/A   Overcast
11:53 PM 32.0 °F 28.7 °F 27.0 °F 82% 30.24 in 9.0 mi WNW 3.5 mph - N/A   Overcast